Overview Statistics Trail Chart Weather Telemetry Raw packets
 

This is the latest recevied weather packets stored in our database for station/object KD0MAC. If no packets are shown the sender has not sent any weather packets the latest 10 day(s).

<< 24 25 26 27 28 29 30 >>
Time Temp. Humidity Pressure Rain* Wind** Luminosity Snow
1788542075 34.44° C 48% 1012.9 hPa 0 mm - 515 W/m² -
1788541776 34.44° C 50% 1012.9 hPa 0 mm - 509 W/m² -
1788541476 33.89° C 49% 1012.9 hPa 0 mm - 501 W/m² -
1788541175 33.89° C 50% 1012.9 hPa 0 mm - 503 W/m² -
1788540876 33.33° C 50% 1012.9 hPa 0 mm - 499 W/m² -
1788540576 33.89° C 51% 1012.9 hPa 0 mm - 498 W/m² -
1788540524 33.89° C 51% 1012.9 hPa 0 mm - 498 W/m² -
1788540225 33.89° C 51% 1012.9 hPa 0 mm - 502 W/m² -
1788539976 33.33° C 53% 1012.9 hPa 0 mm - 506 W/m² -
1788539925 33.33° C 53% 1012.9 hPa 0 mm - 506 W/m² -
1788539625 33.33° C 54% 1012.9 hPa 0 mm - 510 W/m² -
1788539377 32.78° C 55% 1012.9 hPa 0 mm - 510 W/m² -
1788539324 32.78° C 55% 1012.9 hPa 0 mm - 510 W/m² -
1788539025 32.78° C 57% 1012.9 hPa 0 mm - 511 W/m² -
1788538725 32.22° C 55% 1012.9 hPa 0 mm - 469 W/m² -
1788538476 31.67° C 56% 1012.9 hPa 0 mm - 465 W/m² -
1788538424 31.67° C 56% 1012.9 hPa 0 mm - 465 W/m² -
1788538124 31.11° C 58% 1012.9 hPa 0 mm - 251 W/m² -
1788537826 30.56° C 58% 1012.9 hPa 0 mm - 440 W/m² -
1788537527 30° C 60% 1012.9 hPa 0 mm - 171 W/m² -
1788537224 30.56° C 59% 1012.5 hPa 0 mm - 284 W/m² -
1788536976 30° C 60% 1012.5 hPa 0 mm - 427 W/m² -
1788536924 30° C 60% 1012.5 hPa 0 mm - 427 W/m² -
1788536626 29.44° C 62% 1012.5 hPa 0 mm - 181 W/m² -
1788536325 30° C 62% 1012.5 hPa 0 mm - 300 W/m² -

* Rain latest hour (hover to see other rain measurements)
** Current wind speed in m/s (hover to see current wind gust speed)